Location: Huesca
(42.1318°N, 0.4078°W)
Time: 20:16:12
(UTC+02:00)

CUTE 1.7 + AOD 2 - Pass Details

Date: 17 May 2025
Orbit: 547 x 559 km, 97.8° (Epoch: 11 June)

Event Time Altitude Azimuth Distance (km) Brightness Sun altitude
Rises 05:30:42 0° 19° (NNE) 2,760 ? -11.4°
Reaches altitude 10° 05:32:56 10° 26° (NNE) 1,858 ? -11.0°
Maximum altitude 05:36:47 44° 99° (E) 782 ? -10.5°
Drops below altitude 10° 05:40:36 10° 172° (S) 1,839 ? -9.9°
Sets 05:42:47 0° 179° (S) 2,727 ? -9.6°
